Weather observations for the past three days for
Penn Yan, Penn Yan Airport
Imperial (Metric)
Date Time (edt) Wind (mph) Vis. (mi.) Weather Sky Cond. Temperature (ºF) Relative Humidity Wind Chill (°F) Heat Index (°F) Pressure Precipitation (in)
Air Dwpt 6 hour altimeter (in) sea level (mb) 1 hr 3 hr 6 hr
Max. Min.
16 16:53 Calm 10.00 Fair CLR 80.1 54 41% 80 30.12 1019.6
16 15:53 S 7 10.00 Fair CLR 78.1 52 40% 79 30.15 1020.4
16 14:53 SW 8 G 20 10.00 Fair CLR 77 52 42% 78 30.16 1020.9
16 13:53 Vrbl 5 10.00 Fair CLR 75 52 75 55.9 45% 78 30.19 1021.9
16 12:53 Vrbl 5 10.00 Fair CLR 72 51.1 48% 30.2 1022.4
16 11:53 Vrbl 5 10.00 Fair CLR 70 50 49% 30.22 1023.0
16 10:53 SE 6 G 17 10.00 Fair CLR 66.9 45 45% 30.23 1023.5
16 09:53 Calm 10.00 Fair CLR 64 48.9 58% 30.25 1024.2
16 08:53 W 3 10.00 Fair CLR 60.1 50 70% 30.26 1024.5
16 07:53 W 5 10.00 Fair CLR 55 51.1 55 46.9 87% 30.26 1024.7
16 06:53 SW 5 2.50 Fog/Mist BKN001 51.1 50 96% 30.26 1024.6
16 05:53 SW 3 10.00 Fair CLR 48.9 46.9 93% 30.25 1024.3
16 04:53 Calm 10.00 Fair CLR 48 45 89% 30.23 1023.7
16 03:53 SW 3 10.00 Fair CLR 48.9 46.9 93% 30.22 1023.3
16 02:53 Calm 10.00 Fair CLR 52 48.9 89% 30.21 1022.9
16 01:53 S 3 10.00 Fair CLR 50 46.9 64.9 48.9 89% 30.21 1022.8
16 00:53 SE 3 10.00 Fair CLR 52 48 86% 30.2 1022.5
15 23:53 Calm 10.00 Fair CLR 52 46.9 83% 30.19 1022.2
15 22:53 Calm 10.00 Fair CLR 55 46 72% 30.18 1021.7
15 21:53 Calm 10.00 Fair CLR 57 45 64% 30.19 1022.0
15 20:53 Calm 10.00 Fair CLR 61 44.1 54% 30.16 1021.1
15 19:53 Calm 10.00 Fair CLR 64.9 45 72 64.9 49% 30.16 1020.9
15 18:53 N 7 10.00 Fair CLR 68 46 45% 30.15 1020.6
15 17:53 NW 12 G 18 10.00 Fair CLR 68 46.9 47% 30.14 1020.2
15 16:53 NW 9 G 18 10.00 Fair CLR 70 46.9 44% 30.14 1020.3
15 15:53 NW 12 G 20 10.00 A Few Clouds FEW047 70 48.9 47% 30.15 1020.5
15 14:53 NW 14 G 22 10.00 Fair CLR 71.1 50 47% 30.14 1020.1
15 13:53 NW 8 G 20 10.00 A Few Clouds FEW050 72 50 72 62.1 46% 30.12 1019.6
15 12:53 NW 8 G 17 10.00 Partly Cloudy FEW060 SCT075 72 48.9 44% 30.13 1020.0
15 11:53 NW 7 10.00 A Few Clouds FEW060 71.1 48.9 46% 30.13 1019.9
15 10:53 Vrbl 6 10.00 A Few Clouds FEW040 68 48 49% 30.12 1019.6
15 09:53 Calm 10.00 Partly Cloudy SCT034 66.9 51.1 57% 30.11 1019.1
15 08:53 NW 5 10.00 Fair CLR 64 53.1 68% 30.1 1018.8
15 07:53 NW 6 10.00 Fair CLR 62.1 53.1 62.1 57 73% 30.1 1018.7
15 06:53 N 6 10.00 Fair CLR 59 53.1 81% 30.08 1018.2
15 05:53 NW 3 10.00 Overcast BKN050 OVC060 59 52 78% 30.07 1017.7
15 04:53 Calm 10.00 A Few Clouds FEW023 57 52 83% 30.03 1016.6
15 03:53 Calm 10.00 Fair CLR 57.9 51.1 78% 30.02 1016.1
15 02:53 NW 5 10.00 Fair CLR 60.1 51.1 72% 30.01 1015.6
15 01:53 Vrbl 6 10.00 Partly Cloudy SCT075 61 50 71.1 57 67% 30 1015.4
15 00:53 Vrbl 3 10.00 Mostly Cloudy BKN075 61 50 67% 30 1015.3
14 23:53 NW 5 10.00 Fair CLR 63 50 63% 29.99 1014.9
14 22:53 SW 3 10.00 Fair CLR 57.9 50 75% 29.97 1014.4
14 21:53 Calm 10.00 Fair CLR 64 50 60% 29.96 1014.1
14 20:53 NE 3 10.00 Fair CLR 66.9 51.1 57% 29.95 1013.7
14 19:53 Vrbl 5 10.00 Fair CLR 71.1 50 79 70 47% 29.94 1013.2
14 18:53 N 9 10.00 Fair CLR 73 51.1 46% 29.92 1012.4
14 17:53 NW 12 G 20 10.00 Fair CLR 75 51.1 43% 78 29.9 1011.8
14 16:53 N 12 G 20 10.00 Fair CLR 75.9 53.1 45% 78 29.89 1011.2
14 15:53 Vrbl 6 G 18 10.00 Fair CLR 79 51.1 38% 79 29.88 1010.9
14 14:53 N 14 G 21 10.00 Fair CLR 79 50 36% 79 29.89 1011.3
14 13:53 Vrbl 5 10.00 Fair CLR 79 52 79 71.1 39% 79 29.9 1011.8
14 12:53 N 9 10.00 Fair CLR 78.1 51.1 39% 79 29.91 1011.9
14 11:53 W 9 10.00 Fair CLR 78.1 52 40% 79 29.91 1012.1
14 10:53 NW 7 10.00 Fair CLR 77 48.9 37% 78 29.91 1012.1
14 09:53 W 3 10.00 Fair CLR 73 48 41% 29.9 1011.9
14 08:53 W 7 10.00 Fair CLR 73 52 48% 29.9 1011.8
14 07:53 Calm 10.00 Fair CLR 71.1 59 73 69.1 66% 29.9 1011.8
14 06:53 Calm 10.00 Overcast FEW038 BKN049 OVC060 70 59 68% 29.89 1011.2
14 05:53 NW 7 10.00 Partly Cloudy SCT037 73 57.9 59% 29.85 1009.8
14 04:53 SW 8 10.00 Fair CLR 73 57 57% 29.82 1009.0
14 03:53 SW 7 10.00 Fair CLR 70 55.9 61% 29.82 1008.8
14 02:53 S 10 10.00 Fair CLR 72 55 55% 29.82 1008.9
14 01:53 S 14 10.00 Partly Cloudy SCT120 72 54 81 72 53% 29.82 1008.9
14 00:53 SW 12 10.00 Fair CLR 73 55 53% 29.83 1009.3
13 23:53 SW 10 10.00 A Few Clouds FEW095 73 55 53% 29.84 1009.7
13 22:53 S 13 10.00 Fair CLR 75.9 53.1 45% 78 29.86 1010.1
13 21:53 S 8 10.00 Fair CLR 75 53.1 46% 78 29.86 1010.5
13 20:53 SW 8 10.00 Fair CLR 78.1 54 43% 79 29.84 1009.8
13 19:53 SW 10 10.00 Fair CLR 81 54 84.9 81 39% 81 29.86 1010.2
13 18:53 S 14 10.00 Fair CLR 82.9 54 37% 82 29.85 1010.2
13 17:53 S 12 10.00 Fair CLR 84 54 36% 83 29.86 1010.6
Date Time (edt) Wind (mph) Vis. (mi.) Weather Sky Cond. Air Dwpt Max. Min. Relative Humidity Wind Chill (°F) Heat Index (°F) altimeter (in) sea level (mb) 1 hr 3 hr 6 hr
6 hour
Temperature (ºF) Pressure Precipitation (in)